Weather in Victoria de Las Tunas

Cuba     20°57′36″N   76°57′24″W
temp.,
°C
wind,
m/s
gust,
m/s
humid.,
%
clouds,
%
prec.,
mm/h
press.,
hPa
HPBL,
m
3 august, tue
tue323:00+25ene4118799 0.0 1018467
02:00+24ene3994100 0.0 1016309
05:00+24ene41090100 0.0 1016349
08:00+25ene398681 0.0 1017446
11:00+30e686288 0.0 10171259
14:00+33e4646100 0.0 10152320
17:00+30nne6767100 0.6 1014530
20:00+25ne5108544 1.8 1016264
4 august, wed
wed423:00+23ene3995100 0.9 1017233
02:00+23ene31095100 1.4 1016284
05:00+23ene39955 0.0 1015243
08:00+24ese36904 0.0 1016240
11:00+29se33646 0.0 10171027
14:00+33se23494 0.0 10151980
17:00+32nne325484 0.3 10141256
20:00+26nne468468 3.8 101684
5 august, thu
thu523:00+25nne1188100 4.8 101715
02:00+24sw1187100 4.8 101711
05:00+24nw0088100 0.0 101711
08:00+25ese128542 0.0 1017106
11:00+29se33665 0.0 1018820
14:00+32se23535 0.0 10171576
17:00+32nne54605 0.0 1015865
20:00+26ne48821 0.4 1017199
6 august, fri
fri623:00+25ene499215 0.1 1018229
02:00+24ne38965 0.1 1017239
05:00+24ne38979 0.1 1017252
08:00+25e489127 0.1 1018373
11:00+30e566595 0.0 10181363
14:00+30e576795 0.9 1016570
17:00+30ne477190 4.3 1015779
20:00+26ne5118665 5.7 1016384
7 august, sat
sat723:00+24ene3109493 2.4 1017273
02:00+24ene399429 2.7 1016295
05:00+23e3793100 0.0 1016184
08:00+25e389161 0.0 1017296
11:00+30e566583 0.0 10171348
14:00+30ene5769100 0.2 1016605
17:00+31ne566549 1.4 10151115
20:00+26ene5108253 3.6 1016344